This is the latest recevied weather packets stored in our database for station/object YF9UAG-15. If no packets are shown the sender has not sent any weather packets the latest 10 day(s).
| Time | Temp. | Humidity | Pressure | Rain* | Wind** | Luminosity | Snow |
|---|---|---|---|---|---|---|---|
| 1777876290 | 31.11° C | 91% | 1005.4 hPa | - | - | - | - |
| 1777876169 | 31.11° C | 91% | 1005.4 hPa | - | - | - | - |
| 1777876048 | 31.67° C | 90% | 1005.5 hPa | - | - | - | - |
| 1777875927 | 31.67° C | 90% | 1005.4 hPa | - | - | - | - |
| 1777875807 | 31.67° C | 89% | 1005.4 hPa | - | - | - | - |
| 1777875686 | 31.67° C | 87% | 1005.4 hPa | - | - | - | - |
| 1777875565 | 32.22° C | 84% | 1005.4 hPa | - | - | - | - |
| 1777875444 | 31.67° C | 87% | 1005.3 hPa | - | - | - | - |
| 1777875323 | 31.67° C | 87% | 1005.3 hPa | - | - | - | - |
| 1777875202 | 31.67° C | 86% | 1005.2 hPa | - | - | - | - |
| 1777875081 | 31.67° C | 86% | 1005.2 hPa | - | - | - | - |
| 1777874960 | 31.67° C | 86% | 1005.2 hPa | - | - | - | - |
| 1777874839 | 31.67° C | 85% | 1005.1 hPa | - | - | - | - |
| 1777874718 | 31.67° C | 84% | 1005.1 hPa | - | - | - | - |
| 1777874597 | 31.67° C | 84% | 1005 hPa | - | - | - | - |
| 1777874476 | 31.67° C | 83% | 1005.2 hPa | - | - | - | - |
| 1777874355 | 32.22° C | 82% | 1005.1 hPa | - | - | - | - |
| 1777874234 | 32.22° C | 81% | 1005.1 hPa | - | - | - | - |
| 1777874113 | 32.22° C | 80% | 1004.9 hPa | - | - | - | - |
| 1777873992 | 32.22° C | 81% | 1004.9 hPa | - | - | - | - |
| 1777873871 | 32.22° C | 81% | 1004.9 hPa | - | - | - | - |
| 1777873751 | 32.22° C | 81% | 1004.8 hPa | - | - | - | - |
| 1777873630 | 32.22° C | 82% | 1004.7 hPa | - | - | - | - |
| 1777873509 | 32.22° C | 81% | 1004.7 hPa | - | - | - | - |
| 1777873388 | 32.22° C | 80% | 1004.7 hPa | - | - | - | - |
* Rain since midnight (hover to see other rain measurements)
** Current wind speed in m/s (hover to see current wind gust speed)